This demonstration page uses our WeatherBlox Daily Observations layout. Learn more.

Left ArrowRight Arrow

34.74481, -87.66753

Hourly Observations for October 3, 2022

Temp ( °F °C ) Dew Point ( °F °C ) Humidity (%) Winds ( mph kmh ) Pressure ( in mb ) Visibility ( mi km ) Precip ( " mm )
12:53 am 00:53 Clear 61 16.1 50 10 67 67 NNE 3 6 30.12 1020 10 16 0.00 0.00
1:53 am 01:53 Clear 60 15.6 51 10.6 72 72 NNE 6 9 30.11 1020 10 16 0.00 0.00
2:53 am 02:53 Clear 58 14.4 51 10.6 78 78 NNE 5 7 30.11 1020 10 16 0.00 0.00
3:53 am 03:53 Clear 57 13.9 50 10 77 77 NE 6 9 30.11 1020 10 16 0.00 0.00
4:53 am 04:53 Clear 57 13.9 51 10.6 80 80 VRB 3 6 30.12 1020 10 16 0.00 0.00
5:53 am 05:53 Clear 58 14.4 51 10.6 78 78 ENE 7 11 30.13 1020 10 16 0.00 0.00
6:53 am 06:53 Sunny 56 13.3 51 10.6 84 84 ENE 5 7 30.15 1021 10 16 0.00 0.00
7:53 am 07:53 Sunny 60 15.6 53 11.7 78 78 NE 6 9 30.16 1022 10 16 0.00 0.00
8:53 am 08:53 Sunny 64 17.8 53 11.7 67 67 ENE 10 17 30.18 1022 10 16 0.00 0.00
9:53 am 09:53 Sunny 67 19.4 53 11.7 61 61 NE 8 13 30.18 1022 10 16 0.00 0.00
10:53 am 10:53 Sunny 70 21.1 54 12.2 57 57 VRB 6 9 30.18 1022 10 16 0.00 0.00
11:53 am 11:53 Sunny 72 22.2 53 11.7 51 51 ENE 8 13 30.16 1021 10 16 0.00 0.00
12:53 pm 12:53 Sunny 75 23.9 53 11.7 46 46 N 8 13 30.14 1021 10 16 0.00 0.00
1:53 pm 13:53 Sunny 76 24.4 53 11.7 45 45 N 8 13 30.11 1020 10 16 0.00 0.00
2:53 pm 14:53 Sunny 77 25 52 11.1 42 42 VRB 6 9 30.09 1019 10 16 0.00 0.00
3:53 pm 15:53 Sunny 79 26.1 54 12.2 42 42 NNE 10 17 30.08 1019 10 16 0.00 0.00
4:53 pm 16:53 Sunny 77 25 54 12.2 45 45 NE 7 11 30.08 1019 10 16 0.00 0.00
5:53 pm 17:53 Sunny 75 23.9 54 12.2 48 48 NE 8 13 30.09 1019 10 16 0.00 0.00
6:53 pm 18:53 Clear 68 20 54 12.2 61 61 E 6 9 30.10 1019 10 16 0.00 0.00
7:53 pm 19:53 Clear 64 17.8 54 12.2 70 70 Calm 30.11 1020 10 16 0.00 0.00
8:53 pm 20:53 Clear 62 16.7 54 12.2 75 75 E 3 6 30.13 1020 10 16 0.00 0.00
9:53 pm 21:53 Clear 60 15.6 54 12.2 80 80 Calm 30.13 1020 10 16 0.00 0.00
10:53 pm 22:53 Clear 57 13.9 53 11.7 87 87 NNE 3 6 30.14 1021 10 16 0.00 0.00
11:53 pm 23:53 Clear 56 13.3 51 10.6 84 84 Calm 30.13 1020 10 16 0.00 0.00

Powered by AerisWeather